Flag for Spain Weather past 2 weeks in Pamplona, Spain

Now
75 °F

Sunny.


Feels Like: 78 °F
Forecast: 52 / 76 °F
Wind: 3 mph from Northwest

Location: Pamplona / Noain

Current Time: Oct 24, 2014 at 7:12:32 PM

Latest Report: Oct 24, 2014 at 6:30 PM


Visibility: 10 mi

Pressure: 30.09 "Hg

Humidity: 41%

Dew point: 50 °F

Location of PamplonaLocation

Historic Weather in Pamplona — Graph

°F

Pamplona temperature yesterday

Maximum temperature yesterday: 73 °F (at 3:00 PM)
Minimum temperature yesterday: 39 °F (at 7:30 AM)
Average temperature yesterday: 57 °F

Past Weeks' High & Low Weather Summary

 TemperatureHumidityPressure
High84 °F (Oct 19, 4:00 PM)100% (Oct 9, 6:30 PM)30.45 "Hg (Oct 9, 6:30 PM)
Low39 °F (Oct 23, 7:30 AM)12% (Oct 23, 3:30 PM)29.65 "Hg (Oct 12, 5:30 AM)
Average63 °F68%30.03 "Hg
* Reported Oct 9 6:00 PM — Oct 24 6:00 PM, Pamplona, Weather by CustomWeather, © 2014

Note: Actual official high and low records may vary slightly from our data, if they occured in-between our weather recording intervals... More about our weather records

Advertising

Pamplona weather history for previous 24 hours

 ConditionsComfort  
Time TempWeatherWind HumidityBarometerVisibility
6:00 PM
Oct 24
77 °FSunny.7 mph36%30.09 "Hg10 mi
5:30 PM79 °FPassing clouds.6 mph34%30.09 "HgN/A
5:00 PM79 °FSunny.5 mph34%30.09 "Hg10 mi
4:30 PM79 °FSunny.1 mph32%30.09 "Hg10 mi
4:00 PM79 °FSunny.1 mph30%30.09 "Hg10 mi
3:30 PM77 °FSunny.No wind32%30.09 "Hg10 mi
3:00 PM75 °FSunny.No wind31%30.09 "Hg10 mi
2:30 PM73 °FSunny.No wind29%30.12 "Hg10 mi
2:00 PM72 °FSunny.No wind29%30.12 "Hg10 mi
1:30 PM70 °FSunny.1 mph27%30.15 "Hg10 mi
1:00 PM66 °FSunny.2 mph30%30.15 "Hg10 mi
12:30 PM64 °FSunny.No wind30%30.15 "Hg10 mi
12:00 PM63 °FSunny.No wind30%30.15 "Hg10 mi
11:30 AM59 °FSunny.No wind34%30.15 "Hg10 mi
10:30 AM54 °FSunny.No wind44%30.15 "Hg10 mi
10:00 AM50 °FSunny.No wind50%30.15 "Hg10 mi
9:30 AM48 °FSunny.1 mph54%30.15 "Hg10 mi
9:00 AM46 °FClear.1 mph46%30.15 "Hg10 mi
8:30 AM46 °FClear.No wind46%30.15 "Hg10 mi
8:00 AM46 °FClear.1 mph50%30.15 "Hg10 mi
7:30 AM46 °FClear.No wind46%30.15 "Hg10 mi
7:00 AM46 °FClear.No wind53%30.15 "Hg10 mi
6:30 AM46 °FClear.1 mph46%30.15 "Hg10 mi
6:00 AM46 °FClear.5 mph43%30.15 "Hg10 mi
5:30 AM48 °FClear.2 mph43%30.15 "Hg10 mi
12:00 AM54 °FClear.1 mph35%30.21 "Hg10 mi
11:30 PM
Oct 23
54 °FClear.1 mph35%30.21 "Hg10 mi
11:00 PM55 °FClear.1 mph33%30.21 "Hg10 mi
10:30 PM55 °FClear.No wind33%30.21 "Hg10 mi
10:00 PM59 °FClear.No wind20%30.21 "Hg10 mi
9:30 PM61 °FClear.6 mph22%30.21 "Hg10 mi
9:00 PM59 °FClear.6 mph29%30.21 "Hg10 mi
8:30 PM61 °FClear.8 mph27%30.21 "Hg10 mi
8:00 PM63 °FSunny.8 mph24%30.18 "Hg10 mi
7:30 PM64 °FSunny.8 mph19%30.18 "Hg10 mi
7:00 PM66 °FSunny.10 mph18%30.18 "Hg10 mi
Weather by CustomWeather, © 2014

See weather overviewHow to use our weather pages